Year,Month,Day,Hour,Minute,Value (Times are PST for temperature in C)
2018,12,07,00,00,1.00
2018,12,07,00,01,1.00
2018,12,07,00,02,1.10
2018,12,07,00,03,1.10
2018,12,07,00,04,1.10
2018,12,07,00,05,1.20
2018,12,07,00,06,1.10
2018,12,07,00,07,1.10
2018,12,07,00,08,1.10
2018,12,07,00,09,1.00
2018,12,07,00,10,1.00
2018,12,07,00,11,0.90
2018,12,07,00,12,1.00
2018,12,07,00,13,1.00
2018,12,07,00,14,1.10
2018,12,07,00,15,1.10
2018,12,07,00,16,1.20
2018,12,07,00,17,1.20
2018,12,07,00,18,1.20
2018,12,07,00,19,1.30
2018,12,07,00,20,1.30
2018,12,07,00,21,1.30
2018,12,07,00,22,1.30
2018,12,07,00,23,1.30
2018,12,07,00,24,1.30
2018,12,07,00,25,1.30
2018,12,07,00,26,1.30
2018,12,07,00,27,1.30
2018,12,07,00,28,1.20
2018,12,07,00,29,1.20
2018,12,07,00,30,1.20
2018,12,07,00,31,1.20
2018,12,07,00,32,1.20
2018,12,07,00,33,1.20
2018,12,07,00,34,1.20
2018,12,07,00,35,1.20
2018,12,07,00,36,1.20
2018,12,07,00,37,1.20
2018,12,07,00,38,1.20
2018,12,07,00,39,1.20
2018,12,07,00,40,1.20
2018,12,07,00,41,1.20
2018,12,07,00,42,1.20
2018,12,07,00,43,1.20
2018,12,07,00,44,1.20
2018,12,07,00,45,1.20
2018,12,07,00,46,1.20
2018,12,07,00,47,1.20
2018,12,07,00,48,1.20
2018,12,07,00,49,1.20
2018,12,07,00,50,1.20
2018,12,07,00,51,1.10
2018,12,07,00,52,1.10
2018,12,07,00,53,1.10
2018,12,07,00,54,1.10
2018,12,07,00,55,1.10
2018,12,07,00,56,1.10
2018,12,07,00,57,1.00
2018,12,07,00,58,1.00
2018,12,07,00,59,1.00
2018,12,07,01,00,1.00
2018,12,07,01,01,0.90
2018,12,07,01,02,0.90
2018,12,07,01,03,0.90
2018,12,07,01,04,0.90
2018,12,07,01,05,0.90
2018,12,07,01,06,0.90
2018,12,07,01,07,0.90
2018,12,07,01,08,0.90
2018,12,07,01,09,0.80
2018,12,07,01,10,0.80
2018,12,07,01,11,0.80
2018,12,07,01,12,0.80
2018,12,07,01,13,0.80
2018,12,07,01,14,0.80
2018,12,07,01,15,0.70
2018,12,07,01,16,0.70
2018,12,07,01,17,0.70
2018,12,07,01,18,0.70
2018,12,07,01,19,0.70
2018,12,07,01,20,0.70
2018,12,07,01,21,0.80
2018,12,07,01,22,0.80
2018,12,07,01,23,0.80
2018,12,07,01,24,0.80
2018,12,07,01,25,0.80
2018,12,07,01,26,0.70
2018,12,07,01,27,0.80
2018,12,07,01,28,0.80
2018,12,07,01,29,0.80
2018,12,07,01,30,0.80
2018,12,07,01,31,0.80
2018,12,07,01,32,0.80
2018,12,07,01,33,0.80
2018,12,07,01,34,0.70
2018,12,07,01,35,0.70
2018,12,07,01,36,0.60
2018,12,07,01,37,0.60
2018,12,07,01,38,0.60
2018,12,07,01,39,0.60
2018,12,07,01,40,0.60
2018,12,07,01,41,0.60
2018,12,07,01,42,0.70
2018,12,07,01,43,0.70
2018,12,07,01,44,0.70
2018,12,07,01,45,0.80
2018,12,07,01,46,0.80
2018,12,07,01,47,0.80
2018,12,07,01,48,0.80
2018,12,07,01,49,0.80
2018,12,07,01,50,0.80
2018,12,07,01,51,0.90
2018,12,07,01,52,0.90
2018,12,07,01,53,0.90
2018,12,07,01,54,0.90
2018,12,07,01,55,0.90
2018,12,07,01,56,1.00
2018,12,07,01,57,1.00
2018,12,07,01,58,1.00
2018,12,07,01,59,1.10
2018,12,07,02,00,1.10
2018,12,07,02,01,1.10
2018,12,07,02,02,1.10
2018,12,07,02,03,1.10
2018,12,07,02,04,1.10
2018,12,07,02,05,1.10
2018,12,07,02,06,1.10
2018,12,07,02,07,1.10
2018,12,07,02,08,1.00
2018,12,07,02,09,0.90
2018,12,07,02,10,0.90
2018,12,07,02,11,0.90
2018,12,07,02,12,0.90
2018,12,07,02,13,0.90
2018,12,07,02,14,0.90
2018,12,07,02,15,0.90
2018,12,07,02,16,0.90
2018,12,07,02,17,0.90
2018,12,07,02,18,0.90
2018,12,07,02,19,0.80
2018,12,07,02,20,0.80
2018,12,07,02,21,0.70
2018,12,07,02,22,0.70
2018,12,07,02,23,0.60
2018,12,07,02,24,0.50
2018,12,07,02,25,0.50
2018,12,07,02,26,0.40
2018,12,07,02,27,0.30
2018,12,07,02,28,0.30
2018,12,07,02,29,0.20
2018,12,07,02,30,0.20
2018,12,07,02,31,0.20
2018,12,07,02,32,0.30
2018,12,07,02,33,0.50
2018,12,07,02,34,0.80
2018,12,07,02,35,1.00
2018,12,07,02,36,1.20
2018,12,07,02,37,1.30
2018,12,07,02,38,1.50
2018,12,07,02,39,1.60
2018,12,07,02,40,1.70
2018,12,07,02,41,1.80
2018,12,07,02,42,1.80
2018,12,07,02,43,1.80
2018,12,07,02,44,1.90
2018,12,07,02,45,1.90
2018,12,07,02,46,1.90
2018,12,07,02,47,1.90
2018,12,07,02,48,1.80
2018,12,07,02,49,1.80
2018,12,07,02,50,1.90
2018,12,07,02,51,1.90
2018,12,07,02,52,1.90
2018,12,07,02,53,1.90
2018,12,07,02,54,1.80
2018,12,07,02,55,1.80
2018,12,07,02,56,1.70
2018,12,07,02,57,1.70
2018,12,07,02,58,1.60
2018,12,07,02,59,1.60
2018,12,07,03,00,1.60
2018,12,07,03,01,1.50
2018,12,07,03,02,1.50
2018,12,07,03,03,1.40
2018,12,07,03,04,1.40
2018,12,07,03,05,1.30
2018,12,07,03,06,1.30
2018,12,07,03,07,1.30
2018,12,07,03,08,1.30
2018,12,07,03,09,1.30
2018,12,07,03,10,1.30
2018,12,07,03,11,1.30
2018,12,07,03,12,1.30
2018,12,07,03,13,1.20
2018,12,07,03,14,1.20
2018,12,07,03,15,1.10
2018,12,07,03,16,1.10
2018,12,07,03,17,1.10
2018,12,07,03,18,1.00
2018,12,07,03,19,1.00
2018,12,07,03,20,0.90
2018,12,07,03,21,1.00
2018,12,07,03,22,1.00
2018,12,07,03,23,1.00
2018,12,07,03,24,1.00
2018,12,07,03,25,1.00
2018,12,07,03,26,1.10
2018,12,07,03,27,1.10
2018,12,07,03,28,1.20
2018,12,07,03,29,1.20
2018,12,07,03,30,1.10
2018,12,07,03,31,1.10
2018,12,07,03,32,1.10
2018,12,07,03,33,1.00
2018,12,07,03,34,1.00
2018,12,07,03,35,1.00
2018,12,07,03,36,1.00
2018,12,07,03,37,1.00
2018,12,07,03,38,1.00
2018,12,07,03,39,1.00
2018,12,07,03,40,1.00
2018,12,07,03,41,1.00
2018,12,07,03,42,1.00
2018,12,07,03,43,1.00
2018,12,07,03,44,1.00
2018,12,07,03,45,1.00
2018,12,07,03,46,1.00
2018,12,07,03,47,1.00
2018,12,07,03,48,1.00
2018,12,07,03,49,1.00
2018,12,07,03,50,1.00
2018,12,07,03,51,1.00
2018,12,07,03,52,1.10
2018,12,07,03,53,1.10
2018,12,07,03,54,1.10
2018,12,07,03,55,1.10
2018,12,07,03,56,1.10
2018,12,07,03,57,1.10
2018,12,07,03,58,1.10
2018,12,07,03,59,1.10
2018,12,07,04,00,1.10
2018,12,07,04,01,1.10
2018,12,07,04,02,1.10
2018,12,07,04,03,1.10
2018,12,07,04,04,1.10
2018,12,07,04,05,1.10
2018,12,07,04,06,1.20
2018,12,07,04,07,1.20
2018,12,07,04,08,1.30
2018,12,07,04,09,1.30
2018,12,07,04,10,1.30
2018,12,07,04,11,1.30
2018,12,07,04,12,1.30
2018,12,07,04,13,1.40
2018,12,07,04,14,1.40
2018,12,07,04,15,1.40
2018,12,07,04,16,1.40
2018,12,07,04,17,1.40
2018,12,07,04,18,1.40
2018,12,07,04,19,1.40
2018,12,07,04,20,1.40
2018,12,07,04,21,1.40
2018,12,07,04,22,1.40
2018,12,07,04,23,1.40
2018,12,07,04,24,1.40
2018,12,07,04,25,1.30
2018,12,07,04,26,1.30
2018,12,07,04,27,1.30
2018,12,07,04,28,1.30
2018,12,07,04,29,1.30
2018,12,07,04,30,1.30
2018,12,07,04,31,1.30
2018,12,07,04,32,1.30
2018,12,07,04,33,1.30
2018,12,07,04,34,1.40
2018,12,07,04,35,1.40
2018,12,07,04,36,1.40
2018,12,07,04,37,1.40
2018,12,07,04,38,1.30
2018,12,07,04,39,1.30
2018,12,07,04,40,1.30
2018,12,07,04,41,1.30
2018,12,07,04,42,1.40
2018,12,07,04,43,1.40
2018,12,07,04,44,1.40
2018,12,07,04,45,1.40
2018,12,07,04,46,1.40
2018,12,07,04,47,1.40
2018,12,07,04,48,1.40
2018,12,07,04,49,1.40
2018,12,07,04,50,1.40
2018,12,07,04,51,1.40
2018,12,07,04,52,1.40
2018,12,07,04,53,1.50
2018,12,07,04,54,1.50
2018,12,07,04,55,1.50
2018,12,07,04,56,1.50
2018,12,07,04,57,1.50
2018,12,07,04,58,1.50
2018,12,07,04,59,1.50
2018,12,07,05,00,1.40
2018,12,07,05,01,1.40
2018,12,07,05,02,1.40
2018,12,07,05,03,1.40
2018,12,07,05,04,1.40
2018,12,07,05,05,1.40
2018,12,07,05,06,1.30
2018,12,07,05,07,1.30
2018,12,07,05,08,1.20
2018,12,07,05,09,1.20
2018,12,07,05,10,1.20
2018,12,07,05,11,1.20
2018,12,07,05,12,1.20
2018,12,07,05,13,1.20
2018,12,07,05,14,1.10
2018,12,07,05,15,1.10
2018,12,07,05,16,1.10
2018,12,07,05,17,1.10
2018,12,07,05,18,1.10
2018,12,07,05,19,1.10
2018,12,07,05,20,1.10
2018,12,07,05,21,1.10
2018,12,07,05,22,1.10
2018,12,07,05,23,1.10
2018,12,07,05,24,1.10
2018,12,07,05,25,1.10
2018,12,07,05,26,1.10
2018,12,07,05,27,1.10
2018,12,07,05,28,1.10
2018,12,07,05,29,1.10
2018,12,07,05,30,1.10
2018,12,07,05,31,1.10
2018,12,07,05,32,1.10
2018,12,07,05,33,1.10
2018,12,07,05,34,1.10
2018,12,07,05,35,1.10
2018,12,07,05,36,1.10
2018,12,07,05,37,1.10
2018,12,07,05,38,1.10
2018,12,07,05,39,1.10
2018,12,07,05,40,1.10
2018,12,07,05,41,1.10
2018,12,07,05,42,1.10
2018,12,07,05,43,1.10
2018,12,07,05,44,1.10
2018,12,07,05,45,1.20
2018,12,07,05,46,1.20
2018,12,07,05,47,1.20
2018,12,07,05,48,1.20
2018,12,07,05,49,1.20
2018,12,07,05,50,1.20
2018,12,07,05,51,1.20
2018,12,07,05,52,1.20
2018,12,07,05,53,1.20
2018,12,07,05,54,1.20
2018,12,07,05,55,1.30
2018,12,07,05,56,1.30
2018,12,07,05,57,1.30
2018,12,07,05,58,1.30
2018,12,07,05,59,1.30
2018,12,07,06,00,1.40
2018,12,07,06,01,1.50
2018,12,07,06,02,1.50
2018,12,07,06,03,1.50
2018,12,07,06,04,1.50
2018,12,07,06,05,1.40
2018,12,07,06,06,1.40
2018,12,07,06,07,1.50
2018,12,07,06,08,1.50
2018,12,07,06,09,1.50
2018,12,07,06,10,1.50
2018,12,07,06,11,1.40
2018,12,07,06,12,1.40
2018,12,07,06,13,1.40
2018,12,07,06,14,1.40
2018,12,07,06,15,1.40
2018,12,07,06,16,1.40
2018,12,07,06,17,1.40
2018,12,07,06,18,1.40
2018,12,07,06,19,1.40
2018,12,07,06,20,1.40
2018,12,07,06,21,1.40
2018,12,07,06,22,1.40
2018,12,07,06,23,1.40
2018,12,07,06,24,1.40
2018,12,07,06,25,1.40
2018,12,07,06,26,1.40
2018,12,07,06,27,1.40
2018,12,07,06,28,1.50
2018,12,07,06,29,1.50
2018,12,07,06,30,1.50
2018,12,07,06,31,1.50
2018,12,07,06,32,1.50
2018,12,07,06,33,1.50
2018,12,07,06,34,1.50
2018,12,07,06,35,1.50
2018,12,07,06,36,1.40
2018,12,07,06,37,1.40
2018,12,07,06,38,1.40
2018,12,07,06,39,1.40
2018,12,07,06,40,1.40
2018,12,07,06,41,1.40
2018,12,07,06,42,1.40
2018,12,07,06,43,1.40
2018,12,07,06,44,1.40
2018,12,07,06,45,1.40
2018,12,07,06,46,1.40
2018,12,07,06,47,1.40
2018,12,07,06,48,1.40
2018,12,07,06,49,1.40
2018,12,07,06,50,1.40
2018,12,07,06,51,1.40
2018,12,07,06,52,1.40
2018,12,07,06,53,1.50
2018,12,07,06,54,1.50
2018,12,07,06,55,1.50
2018,12,07,06,56,1.50
2018,12,07,06,57,1.50
2018,12,07,06,58,1.40
2018,12,07,06,59,1.40
2018,12,07,07,00,1.40
2018,12,07,07,01,1.40
2018,12,07,07,02,1.40
2018,12,07,07,03,1.50
2018,12,07,07,04,1.50
2018,12,07,07,05,1.60
2018,12,07,07,06,1.60
2018,12,07,07,07,1.60
2018,12,07,07,08,1.60
2018,12,07,07,09,1.60
2018,12,07,07,10,1.50
2018,12,07,07,11,1.50
2018,12,07,07,12,1.50
2018,12,07,07,13,1.50
2018,12,07,07,14,1.50
2018,12,07,07,15,1.50
2018,12,07,07,16,1.50
2018,12,07,07,17,1.50
2018,12,07,07,18,1.50
2018,12,07,07,19,1.50
2018,12,07,07,20,1.50
2018,12,07,07,21,1.50
2018,12,07,07,22,1.50
2018,12,07,07,23,1.40
2018,12,07,07,24,1.40
2018,12,07,07,25,1.40
2018,12,07,07,26,1.40
2018,12,07,07,27,1.40
2018,12,07,07,28,1.40
2018,12,07,07,29,1.40
2018,12,07,07,30,1.40
2018,12,07,07,31,1.30
2018,12,07,07,32,1.30
2018,12,07,07,33,1.30
2018,12,07,07,34,1.30
2018,12,07,07,35,1.30
2018,12,07,07,36,1.30
2018,12,07,07,37,1.30
2018,12,07,07,38,1.30
2018,12,07,07,39,1.40
2018,12,07,07,40,1.40
2018,12,07,07,41,1.40
2018,12,07,07,42,1.40
2018,12,07,07,43,1.50
2018,12,07,07,44,1.50
2018,12,07,07,45,1.50
2018,12,07,07,46,1.40
2018,12,07,07,47,1.40
2018,12,07,07,48,1.40
2018,12,07,07,49,1.40
2018,12,07,07,50,1.40
2018,12,07,07,51,1.30
2018,12,07,07,52,1.40
2018,12,07,07,53,1.40
2018,12,07,07,54,1.50
2018,12,07,07,55,1.50
2018,12,07,07,56,1.60
2018,12,07,07,57,1.70
2018,12,07,07,58,1.80
2018,12,07,07,59,1.90
2018,12,07,08,00,2.00
2018,12,07,08,01,2.00
2018,12,07,08,02,2.00
2018,12,07,08,03,1.90
2018,12,07,08,04,1.90
2018,12,07,08,05,2.00
2018,12,07,08,06,2.10
2018,12,07,08,07,2.30
2018,12,07,08,08,2.30
2018,12,07,08,09,2.30
2018,12,07,08,10,2.40
2018,12,07,08,11,2.40
2018,12,07,08,12,2.40
2018,12,07,08,13,2.40
2018,12,07,08,14,2.40
2018,12,07,08,15,2.30
2018,12,07,08,16,2.30
2018,12,07,08,17,2.30
2018,12,07,08,18,2.30
2018,12,07,08,19,2.30
2018,12,07,08,20,2.20
2018,12,07,08,21,2.20
2018,12,07,08,22,2.20
2018,12,07,08,23,2.20
2018,12,07,08,24,2.20
2018,12,07,08,25,2.10
2018,12,07,08,26,2.10
2018,12,07,08,27,2.10
2018,12,07,08,28,2.10
2018,12,07,08,29,2.10
2018,12,07,08,30,2.00
2018,12,07,08,31,2.10
2018,12,07,08,32,2.10
2018,12,07,08,33,2.10
2018,12,07,08,34,2.10
2018,12,07,08,35,2.20
2018,12,07,08,36,2.20
2018,12,07,08,37,2.30
2018,12,07,08,38,2.30
2018,12,07,08,39,2.40
2018,12,07,08,40,2.40
2018,12,07,08,41,2.50
2018,12,07,08,42,2.70
2018,12,07,08,43,2.80
2018,12,07,08,44,2.90
2018,12,07,08,45,2.90
2018,12,07,08,46,2.90
2018,12,07,08,47,2.90
2018,12,07,08,48,2.80
2018,12,07,08,49,2.80
2018,12,07,08,50,2.80
2018,12,07,08,51,2.80
2018,12,07,08,52,2.80
2018,12,07,08,53,2.80
2018,12,07,08,54,2.80
2018,12,07,08,55,2.80
2018,12,07,08,56,2.80
2018,12,07,08,57,2.90
2018,12,07,08,58,3.00
2018,12,07,08,59,3.00
2018,12,07,09,00,3.10
2018,12,07,09,01,3.10
2018,12,07,09,02,3.10
2018,12,07,09,03,3.00
2018,12,07,09,04,3.10
2018,12,07,09,05,3.10
2018,12,07,09,06,3.10
2018,12,07,09,07,3.10
2018,12,07,09,08,3.10
2018,12,07,09,09,3.10
2018,12,07,09,10,3.20
2018,12,07,09,11,3.30
2018,12,07,09,12,3.30
2018,12,07,09,13,3.40
2018,12,07,09,14,3.50
2018,12,07,09,15,3.60
2018,12,07,09,16,3.70
2018,12,07,09,17,3.80
2018,12,07,09,18,3.90
2018,12,07,09,19,4.00
2018,12,07,09,20,4.00
2018,12,07,09,21,4.10
2018,12,07,09,22,4.10
2018,12,07,09,23,4.10
2018,12,07,09,24,4.10
2018,12,07,09,25,4.10
2018,12,07,09,26,4.10
2018,12,07,09,27,4.10
2018,12,07,09,28,4.20
2018,12,07,09,29,4.20
2018,12,07,09,30,4.20
2018,12,07,09,31,4.30
2018,12,07,09,32,4.30
2018,12,07,09,33,4.30
2018,12,07,09,34,4.30
2018,12,07,09,35,4.30
2018,12,07,09,36,4.30
2018,12,07,09,37,4.30
2018,12,07,09,38,4.30
2018,12,07,09,39,4.30
2018,12,07,09,40,4.30
2018,12,07,09,41,4.30
2018,12,07,09,42,4.30
2018,12,07,09,43,4.20
2018,12,07,09,44,4.30
2018,12,07,09,45,4.30
2018,12,07,09,46,4.30
2018,12,07,09,47,4.30
2018,12,07,09,48,4.40
2018,12,07,09,49,4.40
2018,12,07,09,50,4.40
2018,12,07,09,51,4.40
2018,12,07,09,52,4.40
2018,12,07,09,53,4.40
2018,12,07,09,54,4.40
2018,12,07,09,55,4.40
2018,12,07,09,56,4.40
2018,12,07,09,57,4.40
2018,12,07,09,58,4.40
2018,12,07,09,59,4.50
2018,12,07,10,00,4.50
2018,12,07,10,01,4.50
2018,12,07,10,02,4.60
2018,12,07,10,03,4.60
2018,12,07,10,04,4.60
2018,12,07,10,05,4.60
2018,12,07,10,06,4.60
2018,12,07,10,07,4.60
2018,12,07,10,08,4.60
2018,12,07,10,09,4.60
2018,12,07,10,10,4.60
2018,12,07,10,11,4.60
2018,12,07,10,12,4.60
2018,12,07,10,13,4.60
2018,12,07,10,14,4.60
2018,12,07,10,15,4.60
2018,12,07,10,16,4.60
2018,12,07,10,17,4.70
2018,12,07,10,18,4.70
2018,12,07,10,19,4.70
2018,12,07,10,20,4.70
2018,12,07,10,21,4.70
2018,12,07,10,22,4.80
2018,12,07,10,23,4.80
2018,12,07,10,24,4.80
2018,12,07,10,25,4.80
2018,12,07,10,26,4.80
2018,12,07,10,27,4.80
2018,12,07,10,28,4.80
2018,12,07,10,29,4.80
2018,12,07,10,30,4.70
2018,12,07,10,31,4.70
2018,12,07,10,32,4.60
2018,12,07,10,33,4.60
2018,12,07,10,34,4.60
2018,12,07,10,35,4.60
2018,12,07,10,36,4.50
2018,12,07,10,37,4.50
2018,12,07,10,38,4.50
2018,12,07,10,39,4.50
2018,12,07,10,40,4.50
2018,12,07,10,41,4.50
2018,12,07,10,42,4.50
2018,12,07,10,43,4.40
2018,12,07,10,44,4.40
2018,12,07,10,45,4.40
2018,12,07,10,46,4.40
2018,12,07,10,47,4.50
2018,12,07,10,48,4.40
2018,12,07,10,49,4.40
2018,12,07,10,50,4.40
2018,12,07,10,51,4.40
2018,12,07,10,52,4.40
2018,12,07,10,53,4.50
2018,12,07,10,54,4.50
2018,12,07,10,55,4.50
2018,12,07,10,56,4.50
2018,12,07,10,57,4.50
2018,12,07,10,58,4.60
2018,12,07,10,59,4.60
2018,12,07,11,00,4.70
2018,12,07,11,01,4.70
2018,12,07,11,02,4.70
2018,12,07,11,03,4.70
2018,12,07,11,04,4.70
2018,12,07,11,05,4.70
2018,12,07,11,06,4.80
2018,12,07,11,07,4.80
2018,12,07,11,08,4.80
2018,12,07,11,09,4.80
2018,12,07,11,10,4.80
2018,12,07,11,11,4.90
2018,12,07,11,12,4.90
2018,12,07,11,13,4.90
2018,12,07,11,14,4.90
2018,12,07,11,15,4.90
2018,12,07,11,16,4.90
2018,12,07,11,17,4.90
2018,12,07,11,18,4.90
2018,12,07,11,19,4.90
2018,12,07,11,20,4.80
2018,12,07,11,21,4.80
2018,12,07,11,22,4.80
2018,12,07,11,23,4.80
2018,12,07,11,24,4.80
2018,12,07,11,25,4.80
2018,12,07,11,26,4.80
2018,12,07,11,27,4.80
2018,12,07,11,28,4.80
2018,12,07,11,29,4.80
2018,12,07,11,30,4.80
2018,12,07,11,31,4.80
2018,12,07,11,32,4.90
2018,12,07,11,33,4.90
2018,12,07,11,34,4.90
2018,12,07,11,35,5.00
2018,12,07,11,36,4.90
2018,12,07,11,37,4.90
2018,12,07,11,38,4.90
2018,12,07,11,39,4.90
2018,12,07,11,40,4.90
2018,12,07,11,41,4.90
2018,12,07,11,42,4.90
2018,12,07,11,43,5.00
2018,12,07,11,44,5.00
2018,12,07,11,45,5.00
2018,12,07,11,46,5.00
2018,12,07,11,47,5.00
2018,12,07,11,48,5.10
2018,12,07,11,49,5.10
2018,12,07,11,50,5.10
2018,12,07,11,51,5.10
2018,12,07,11,52,5.10
2018,12,07,11,53,5.10
2018,12,07,11,54,5.20
2018,12,07,11,55,5.20
2018,12,07,11,56,5.20
2018,12,07,11,57,5.20
2018,12,07,11,58,5.30
2018,12,07,11,59,5.30
2018,12,07,12,00,5.30
2018,12,07,12,01,5.30
2018,12,07,12,02,5.30
2018,12,07,12,03,5.40
2018,12,07,12,04,5.40
2018,12,07,12,05,5.40
2018,12,07,12,06,5.40
2018,12,07,12,07,5.50
2018,12,07,12,08,5.50
2018,12,07,12,09,5.40
2018,12,07,12,10,5.40
2018,12,07,12,11,5.40
2018,12,07,12,12,5.40
2018,12,07,12,13,5.50
2018,12,07,12,14,5.50
2018,12,07,12,15,5.50
2018,12,07,12,16,5.60
2018,12,07,12,17,5.60
2018,12,07,12,18,5.70
2018,12,07,12,19,5.70
2018,12,07,12,20,5.70
2018,12,07,12,21,5.70
2018,12,07,12,22,5.70
2018,12,07,12,23,5.70
2018,12,07,12,24,5.80
2018,12,07,12,25,5.80
2018,12,07,12,26,5.70
2018,12,07,12,27,5.70
2018,12,07,12,28,5.70
2018,12,07,12,29,5.70
2018,12,07,12,30,5.70
2018,12,07,12,31,5.70
2018,12,07,12,32,5.70
2018,12,07,12,33,5.80
2018,12,07,12,34,5.80
2018,12,07,12,35,5.90
2018,12,07,12,36,5.90
2018,12,07,12,37,5.90
2018,12,07,12,38,5.80
2018,12,07,12,39,5.80
2018,12,07,12,40,5.80
2018,12,07,12,41,5.90
2018,12,07,12,42,5.90
2018,12,07,12,43,5.80
2018,12,07,12,44,5.70
2018,12,07,12,45,5.70
2018,12,07,12,46,5.70
2018,12,07,12,47,5.70
2018,12,07,12,48,5.70
2018,12,07,12,49,5.80
2018,12,07,12,50,5.70
2018,12,07,12,51,5.80
2018,12,07,12,52,5.80
2018,12,07,12,53,5.80
2018,12,07,12,54,5.80
2018,12,07,12,55,5.90
2018,12,07,12,56,5.90
2018,12,07,12,57,5.90
2018,12,07,12,58,5.90
2018,12,07,12,59,5.90
2018,12,07,13,00,5.90
2018,12,07,13,01,5.90
2018,12,07,13,02,5.90
2018,12,07,13,03,5.80
2018,12,07,13,04,5.70
2018,12,07,13,05,5.60
2018,12,07,13,06,5.60
2018,12,07,13,07,5.60
2018,12,07,13,08,5.60
2018,12,07,13,09,5.60
2018,12,07,13,10,5.60
2018,12,07,13,11,5.60
2018,12,07,13,12,5.60
2018,12,07,13,13,5.60
2018,12,07,13,14,5.60
2018,12,07,13,15,5.60
2018,12,07,13,16,5.60
2018,12,07,13,17,5.60
2018,12,07,13,18,5.60
2018,12,07,13,19,5.60
2018,12,07,13,20,5.50
2018,12,07,13,21,5.50
2018,12,07,13,22,5.50
2018,12,07,13,23,5.50
2018,12,07,13,24,5.50
2018,12,07,13,25,5.50
2018,12,07,13,26,5.50
2018,12,07,13,27,5.50
2018,12,07,13,28,5.50
2018,12,07,13,29,5.50
2018,12,07,13,30,5.50
2018,12,07,13,31,5.40
2018,12,07,13,32,5.40
2018,12,07,13,33,5.40
2018,12,07,13,34,5.40
2018,12,07,13,35,5.40
2018,12,07,13,36,5.40
2018,12,07,13,37,5.40
2018,12,07,13,38,5.40
2018,12,07,13,39,5.40
2018,12,07,13,40,5.40
2018,12,07,13,41,5.40
2018,12,07,13,42,5.40
2018,12,07,13,43,5.40
2018,12,07,13,44,5.40
2018,12,07,13,45,5.40
2018,12,07,13,46,5.40
2018,12,07,13,47,5.40
2018,12,07,13,48,5.40
2018,12,07,13,49,5.40
2018,12,07,13,50,5.40
2018,12,07,13,51,5.40
2018,12,07,13,52,5.40
2018,12,07,13,53,5.40
2018,12,07,13,54,5.40
2018,12,07,13,55,5.30
2018,12,07,13,56,5.30
2018,12,07,13,57,5.30
2018,12,07,13,58,5.30
2018,12,07,13,59,5.30
2018,12,07,14,00,5.30
2018,12,07,14,01,5.30
2018,12,07,14,02,5.30
2018,12,07,14,03,5.30
2018,12,07,14,04,5.30
2018,12,07,14,05,5.30
2018,12,07,14,06,5.30
2018,12,07,14,07,5.30
2018,12,07,14,08,5.30
2018,12,07,14,09,5.30
2018,12,07,14,10,5.30
2018,12,07,14,11,5.30
2018,12,07,14,12,5.30
2018,12,07,14,13,5.30
2018,12,07,14,14,5.30
2018,12,07,14,15,5.30
2018,12,07,14,16,5.30
2018,12,07,14,17,5.30
2018,12,07,14,18,5.30
2018,12,07,14,19,5.30
2018,12,07,14,20,5.30
2018,12,07,14,21,5.30
2018,12,07,14,22,5.30
2018,12,07,14,23,5.30
2018,12,07,14,24,5.30
2018,12,07,14,25,5.30
2018,12,07,14,26,5.30
2018,12,07,14,27,5.30
2018,12,07,14,28,5.30
2018,12,07,14,29,5.30
2018,12,07,14,30,5.30
2018,12,07,14,31,5.30
2018,12,07,14,32,5.30
2018,12,07,14,33,5.30
2018,12,07,14,34,5.40
2018,12,07,14,35,5.30
2018,12,07,14,36,5.30
2018,12,07,14,37,5.30
2018,12,07,14,38,5.30
2018,12,07,14,39,5.30
2018,12,07,14,40,5.30
2018,12,07,14,41,5.30
2018,12,07,14,42,5.30
2018,12,07,14,43,5.30
2018,12,07,14,44,5.30
2018,12,07,14,45,5.30
2018,12,07,14,46,5.30
2018,12,07,14,47,5.30
2018,12,07,14,48,5.30
2018,12,07,14,49,5.30
2018,12,07,14,50,5.30
2018,12,07,14,51,5.30
2018,12,07,14,52,5.30
2018,12,07,14,53,5.30
2018,12,07,14,54,5.30
2018,12,07,14,55,5.20
2018,12,07,14,56,5.20
2018,12,07,14,57,5.20
2018,12,07,14,58,5.20
2018,12,07,14,59,5.20
2018,12,07,15,00,5.20
2018,12,07,15,01,5.20
2018,12,07,15,02,5.20
2018,12,07,15,03,5.20
2018,12,07,15,04,5.20
2018,12,07,15,05,5.20
2018,12,07,15,06,5.20
2018,12,07,15,07,5.20
2018,12,07,15,08,5.20
2018,12,07,15,09,5.20
2018,12,07,15,10,5.20
2018,12,07,15,11,5.20
2018,12,07,15,12,5.20
2018,12,07,15,13,5.20
2018,12,07,15,14,5.10
2018,12,07,15,15,5.10
2018,12,07,15,16,5.10
2018,12,07,15,17,5.10
2018,12,07,15,18,5.10
2018,12,07,15,19,5.10
2018,12,07,15,20,5.10
2018,12,07,15,21,5.10
2018,12,07,15,22,5.00
2018,12,07,15,23,5.00
2018,12,07,15,24,5.00
2018,12,07,15,25,5.00
2018,12,07,15,26,5.00
2018,12,07,15,27,5.00
2018,12,07,15,28,5.00
2018,12,07,15,29,5.00
2018,12,07,15,30,5.00
2018,12,07,15,31,5.00
2018,12,07,15,32,5.00
2018,12,07,15,33,5.00
2018,12,07,15,34,5.00
2018,12,07,15,35,5.00
2018,12,07,15,36,5.00
2018,12,07,15,37,5.00
2018,12,07,15,38,5.00
2018,12,07,15,39,5.00
2018,12,07,15,40,4.90
2018,12,07,15,41,4.90
2018,12,07,15,42,4.90
2018,12,07,15,43,4.90
2018,12,07,15,44,4.90
2018,12,07,15,45,4.90
2018,12,07,15,46,4.80
2018,12,07,15,47,4.80
2018,12,07,15,48,4.80
2018,12,07,15,49,4.80
2018,12,07,15,50,4.80
2018,12,07,15,51,4.80
2018,12,07,15,52,4.80
2018,12,07,15,53,4.80
2018,12,07,15,54,4.70
2018,12,07,15,55,4.70
2018,12,07,15,56,4.70
2018,12,07,15,57,4.70
2018,12,07,15,58,4.70
2018,12,07,15,59,4.70
2018,12,07,16,00,4.60
2018,12,07,16,01,4.60
2018,12,07,16,02,4.60
2018,12,07,16,03,4.50
2018,12,07,16,04,4.50
2018,12,07,16,05,4.50
2018,12,07,16,06,4.50
2018,12,07,16,07,4.50
2018,12,07,16,08,4.50
2018,12,07,16,09,4.50
2018,12,07,16,10,4.50
2018,12,07,16,11,4.50
2018,12,07,16,12,4.40
2018,12,07,16,13,4.40
2018,12,07,16,14,4.40
2018,12,07,16,15,4.40
2018,12,07,16,16,4.40
2018,12,07,16,17,4.40
2018,12,07,16,18,4.40
2018,12,07,16,19,4.40
2018,12,07,16,20,4.40
2018,12,07,16,21,4.40
2018,12,07,16,22,4.30
2018,12,07,16,23,4.30
2018,12,07,16,24,4.30
2018,12,07,16,25,4.30
2018,12,07,16,26,4.30
2018,12,07,16,27,4.30
2018,12,07,16,28,4.30
2018,12,07,16,29,4.30
2018,12,07,16,30,4.30
2018,12,07,16,31,4.30
2018,12,07,16,32,4.30
2018,12,07,16,33,4.20
2018,12,07,16,34,4.20
2018,12,07,16,35,4.20
2018,12,07,16,36,4.20
2018,12,07,16,37,4.20
2018,12,07,16,38,4.20
2018,12,07,16,39,4.10
2018,12,07,16,40,4.10
2018,12,07,16,41,4.10
2018,12,07,16,42,4.10
2018,12,07,16,43,4.10
2018,12,07,16,44,4.10
2018,12,07,16,45,4.10
2018,12,07,16,46,4.10
2018,12,07,16,47,4.10
2018,12,07,16,48,4.10
2018,12,07,16,49,4.10
2018,12,07,16,50,4.10
2018,12,07,16,51,4.10
2018,12,07,16,52,4.10
2018,12,07,16,53,4.10
2018,12,07,16,54,4.10
2018,12,07,16,55,4.10
2018,12,07,16,56,4.10
2018,12,07,16,57,4.10
2018,12,07,16,58,4.10
2018,12,07,16,59,4.00
2018,12,07,17,00,4.00
2018,12,07,17,01,4.00
2018,12,07,17,02,4.00
2018,12,07,17,03,4.00
2018,12,07,17,04,4.00
2018,12,07,17,05,4.00
2018,12,07,17,06,4.00
2018,12,07,17,07,4.00
2018,12,07,17,08,4.00
2018,12,07,17,09,4.00
2018,12,07,17,10,4.00
2018,12,07,17,11,4.00
2018,12,07,17,12,4.00
2018,12,07,17,13,4.00
2018,12,07,17,14,4.10
2018,12,07,17,15,4.10
2018,12,07,17,16,4.10
2018,12,07,17,17,4.10
2018,12,07,17,18,4.10
2018,12,07,17,19,4.10
2018,12,07,17,20,4.10
2018,12,07,17,21,4.10
2018,12,07,17,22,4.10
2018,12,07,17,23,4.10
2018,12,07,17,24,4.10
2018,12,07,17,25,4.10
2018,12,07,17,26,4.10
2018,12,07,17,27,4.10
2018,12,07,17,28,4.00
2018,12,07,17,29,4.00
2018,12,07,17,30,4.00
2018,12,07,17,31,4.00
2018,12,07,17,32,4.00
2018,12,07,17,33,4.00
2018,12,07,17,34,4.00
2018,12,07,17,35,4.00
2018,12,07,17,36,4.00
2018,12,07,17,37,4.00
2018,12,07,17,38,4.00
2018,12,07,17,39,4.00
2018,12,07,17,40,4.00
2018,12,07,17,41,4.00
2018,12,07,17,42,4.00
2018,12,07,17,43,4.00
2018,12,07,17,44,4.00
2018,12,07,17,45,4.00
2018,12,07,17,46,4.10
2018,12,07,17,47,4.10
2018,12,07,17,48,4.10
2018,12,07,17,49,4.10
2018,12,07,17,50,4.20
2018,12,07,17,51,4.20
2018,12,07,17,52,4.20
2018,12,07,17,53,4.20
2018,12,07,17,54,4.30
2018,12,07,17,55,4.30
2018,12,07,17,56,4.30
2018,12,07,17,57,4.30
2018,12,07,17,58,4.30
2018,12,07,17,59,4.30
2018,12,07,18,00,4.30
2018,12,07,18,01,4.30
2018,12,07,18,02,4.30
2018,12,07,18,03,4.40
2018,12,07,18,04,4.40
2018,12,07,18,05,4.40
2018,12,07,18,06,4.40